📊 Raw Sensor Data

Showing records 34976 to 35000 of 84,869 total

ID Distance (ft) Battery V Battery A Int Temp (°F) Int Humid (%) Ext Temp (°F) Solar V RSSI SNR Time Stamp
49906 15.3 3.83 7 61 43 71 4.50 -71 8 08/22/2025 07:15 AM
49905 15.2 3.79 0 59 43 66 4.50 -71 8 08/22/2025 07:00 AM
49904 15.2 3.76 -6 58 44 61 4.60 -71 8 08/22/2025 06:45 AM
49903 15.1 3.62 -7 58 44 59 1.70 -72 8 08/22/2025 06:30 AM
49902 15.1 3.63 -5 58 44 60 1.20 -71 9 08/22/2025 06:15 AM
49901 15.2 3.77 -5 58 44 60 0.00 -70 8 08/22/2025 06:00 AM
49900 15.2 3.77 -5 59 44 60 0.00 -71 8 08/22/2025 05:45 AM
49899 15.2 3.77 -5 59 44 61 0.00 -72 8 08/22/2025 05:30 AM
49898 15.2 3.63 -5 59 44 60 0.00 -71 8 08/22/2025 05:15 AM
49897 15.1 3.62 -5 60 43 62 0.00 -70 9 08/22/2025 05:00 AM
49896 15.1 3.63 -5 59 44 63 0.00 -70 9 08/22/2025 04:45 AM
49895 15.2 3.63 -5 58 44 62 0.00 -72 7 08/22/2025 04:30 AM
49894 15.2 3.63 -5 59 44 60 0.10 -71 8 08/22/2025 04:15 AM
49893 15.2 3.63 -5 59 44 61 0.00 -71 8 08/22/2025 04:00 AM
49892 15.2 3.63 -5 60 44 62 0.00 -71 8 08/22/2025 03:45 AM
49891 15.2 3.63 -5 60 44 62 0.00 -72 8 08/22/2025 03:30 AM
49890 15.2 3.63 -5 60 44 63 0.00 -71 8 08/22/2025 03:15 AM
49889 15.1 3.63 -5 60 44 62 0.00 -70 9 08/22/2025 03:00 AM
49888 15.1 3.64 -5 60 44 64 0.10 -71 8 08/22/2025 02:45 AM
49887 15.2 3.63 -5 60 44 62 0.00 -72 7 08/22/2025 02:30 AM
49886 15.1 3.64 -5 60 45 63 0.00 -71 8 08/22/2025 02:15 AM
49885 15.1 3.64 -5 60 45 63 0.10 -71 8 08/22/2025 02:00 AM
49884 15.1 3.64 -5 60 45 62 0.10 -70 8 08/22/2025 01:45 AM
49883 15.1 3.61 -5 60 45 63 0.10 -71 8 08/22/2025 01:30 AM
49882 15.1 3.64 -5 60 45 64 0.10 -71 8 08/22/2025 01:15 AM